Find Starlink 33742

NORAD ID: 63366 Int'l Des: 2025-063 Owner: SPXS Country: US Constellation: starlink operational
LEOCIRCULAR

現在のビュー

3D地球を読み込み中...

About Starlink 33742

Starlink 33742 (NORAD 63366) is a starlink constellation satellite (v2 mini) launched Mar 26, 2025 by SPXS of US. It operates in LEO, CIRCULAR orbit with a mass of 575.00 kg.

Starlink 33742について

説明を読み込み中...

次回通過

Passes for default location (London). Set your location on the main map for personalized predictions.

高度履歴

Loading altitude history...

軌道要素

1 63366U 25063D 26168.63546191 .00023257 00000-0 79461-3 0 9997
2 63366 53.1613 308.0829 0001016 91.0528 269.0589 15.30211313 70015
Epoch: Jun 17, 2026 • Age: 18 hours

現在のステータス

高度 475.1 km
速度 7.63 km/s
衛星直下点 9.22°N, 72.63°E
打ち上げ日 Mar 26, 2025
運用期間 1.2 years
タイプ internet

技術仕様

分類 Payload
質量 575.00 kg
乾燥質量 530.00 kg
総質量 575.00 kg
長さ 0.30 m
直径 4.10 m
スパン 29.00 m
形状 Box + pan
製造者 SPXS
バスタイプ Starlink V2MO
フェーズステータス In Orbit
所有者/国 SPXS/US

Most Searched